Regional Weather Roundup
Issued by NWS

Home | Current Version | Previous Version | Text Only | Print | Product List | Glossary On
Versions: 1 2 3 4 5 6 7 8 9 10 11 12 13 14 15 16 17 18 19 20 21 22 23 24 25 26 27
000
ASUS44 KJAN 251810
RWRMS

MISSISSIPPI HOURLY WEATHER ROUNDUP
NATIONAL WEATHER SERVICE JACKSON MS
100 PM CDT THU MAY 25 2017

NOTE: "FAIR: INDICATES FEW OR NO CLOUDS BELOW 12,000 FEET WITH NO
SIGNIFICANT WEATHER AND/OR OBSTRUCTIONS TO VISIBILITY.

MSZ001>002-007>008-010>013-018>021-025>028-034>036-251900-
NORTHWEST MISSISSIPPI

CITY           SKY/WX    TMP DP  RH WIND       PRES   REMARKS
BATESVILLE     FAIR      71  54  54 SW10      29.85F
CLARKSDALE       N/A     73  57  56 MISG      29.84F
CLEVELAND      FAIR      73  55  52 SW8       29.85F
GREENWOOD      SUNNY     73  54  51 SW7       29.86F
6HR MIN TEMP:  54; 6HR MAX TEMP:  74;

GREENVILLE     SUNNY     74  50  42 S8        29.85F
6HR MIN TEMP:  55; 6HR MAX TEMP:  75;

OLIVE BRANCH   MOSUNNY  N/A N/A N/A W6        29.81S
OXFORD         FAIR      70  48  46 W8        29.86F
TUNICA         CLEAR     70  54  56 SW8       29.84F
WINONA         FAIR      71  53  53 W6        29.87S
$$

MSZ003>006-009-014>017-022>024-029>033-037>039-251900-
NORTHEAST MISSISSIPPI

CITY           SKY/WX    TMP DP  RH WIND       PRES   REMARKS
COLUMBUS AFB   MOSUNNY   72  58  62 W14       29.85S
6HR MIN TEMP:  54; 6HR MAX TEMP:  72;

CORINTH        FAIR      72  50  46 W10G20    29.82S
STARKVILLE     FAIR      72  50  46 W7        29.87F
TUPELO         MOSUNNY   71  51  49 SW9       29.84S
6HR MIN TEMP:  53; 6HR MAX TEMP:  73;

$$

MSZ040-058-251900-
CENTRAL MISSISSIPPI

CITY           SKY/WX    TMP DP  RH WIND       PRES   REMARKS
JACKSON INTL   SUNNY     74  52  46 W9        29.89F
6HR MIN TEMP:  55; 6HR MAX TEMP:  74;

JACKSON HAWKNS SUNNY     74  51  44 W5        29.89F
6HR MIN TEMP:  55; 6HR MAX TEMP:  75;

MADISON        FAIR      72  52  49 W5G16     29.89S
MERIDIAN KEY   MOSUNNY   76  52  43 W8G23     29.88S
6HR MIN TEMP:  54; 6HR MAX TEMP:  76;

MERIDIAN NAS   MOSUNNY   75  48  38 W12G17    29.88F
6HR MIN TEMP:  56; 6HR MAX TEMP:  75;

VICKSBURG VKS  CLEAR     75  54  46 SW9       29.86F
$$

MSZ059>079-251900-
SOUTH MISSISSIPPI

CITY           SKY/WX    TMP DP  RH WIND       PRES   REMARKS
COLUMBIA       FAIR      77  52  41 W9        29.92F
HATTIESBURG    SUNNY     75  48  38 VRB7G17   29.91S
6HR MIN TEMP:  55; 6HR MAX TEMP:  76; 6HR PCP: TRACE;

MCCOMB         SUNNY     76  50  40 W6        29.90F
6HR MIN TEMP:  52; 6HR MAX TEMP:  77;

NATCHEZ        SUNNY     77  55  46 W10       29.89S
6HR MIN TEMP:  52; 6HR MAX TEMP:  77;

PINE BELT      NOT AVBL
$$

MSZ080>082-251900-
COASTAL MISSISSIPPI

CITY           SKY/WX    TMP DP  RH WIND       PRES   REMARKS
BAY ST LOUIS   SUNNY     79  52  38 W7        29.90F
BILOXI         SUNNY     79  52  38 CALM      29.89F
6HR MIN TEMP:  63; 6HR MAX TEMP:  79;

PASCAGOULA     SUNNY     79  48  33 NW7       29.88F
6HR MIN TEMP:  58; 6HR MAX TEMP:  80;

GULFPORT       SUNNY     79  51  37 W13G18    29.88F
6HR MIN TEMP:  58; 6HR MAX TEMP:  79;

$$

LAZ007>009-015>016-023>026-251900-
NORTHEAST LOUISIANA

CITY           SKY/WX    TMP DP  RH WIND       PRES   REMARKS
BASTROP        FAIR      76  53  43 SE6       29.85F
TALLULAH/VBURG SUNNY     74  54  49 S7        29.88S
6HR MIN TEMP:  54; 6HR MAX TEMP:  75;

VIDALIA        FAIR      75  57  54 SE9       29.88F
$$




USA.gov is the U.S. government's official web portal to all federal, state and local government web resources and services.